Regional Weather Roundup
Issued by NWS

Home | Current Version | Previous Version | Graphics & Text | Print | Product List | Glossary On
Versions: 1 2 3 4 5 6 7 8 9 10 11 12 13 14 15 16 17 18 19 20 21 22 23 24 25 26 27 28 29 30 31 32 33 34 35 36 37 38 39 40 41 42 43 44 45 46 47 48 49
000
ASUS45 KSLC 232110
RWRUT

UTAH REGIONAL WEATHER ROUNDUP
NATIONAL WEATHER SERVICE SALT LAKE CITY UT
300 PM MDT WED JUL 23 2014

UTZ001>011-023>025-232200-

NORTHERN UTAH

CITY           SKY/WX    TMP DP  RH WIND       PRES   REMARKS
HILL AFB       SUNNY     97  39  13 S7        30.11F HX  92
LOGAN          NOT AVBL
OGDEN          SUNNY     98  38  12 VRB6      30.07F HX  93
PROVO AIRPORT  MOSUNNY   99  41  13 CALM      30.11F HX  94
SALT LAKE CITY MOSUNNY   99  35  10 S13G22    30.03F HX  93
VERNAL         PTSUNNY   93  33  12 SE7       30.20F
WENDOVER       SUNNY    100  34  10 E15       30.02F HX  94
HEBER CITY     SUNNY     97  36  11 SW17G24   30.19F HX  92
WEST JORDAN    SUNNY     99  54  22 SE9G26    30.09F HX  96

$$

UTZ012>022-026-027-232200-

SOUTHERN UTAH

CITY           SKY/WX    TMP DP  RH WIND       PRES   REMARKS
BRYCE CANYON   PTSUNNY   85  37  18 S10G18    30.41F
CEDAR CITY     MOSUNNY   93  35  13 SW16G25   30.21F
MILFORD        SUNNY    102  33   9 SW21G33   30.13F HX  96
MOAB/CYNLANDS  SUNNY    102  37  10 W8G20     30.11F HX  96
PRICE          MOSUNNY   97  34  11 S9G20     30.25F HX  91
ST GEORGE      CLEAR    106  37   9 NW10      30.00F HX 100

$$

REGIONAL REPORTS     COLORADO/ARIZONA

CITY           SKY/WX    TMP DP  RH WIND       PRES   REMARKS
CRAIG, CO      MOSUNNY   91  42  18 VRB3      30.28F
GRAND JUNCTION MOSUNNY   95  42  16 W10       30.16F HX  91
RIFLE          MOSUNNY   97  31   9 W13G22    30.21F HX  91
MONTROSE       MOSUNNY   92  42  17 W10       30.26F
CORTEZ         SUNNY     95  37  13 VRB6G18   30.28F HX  90
PAGE, AZ       SUNNY    102  41  12 VRB3      30.11F HX  97
GRAND CANYON   MOSUNNY   90  37  15 VRB6      30.34F
KINGMAN        MOSUNNY  103  37  10 SW16      30.07F HX  97
FLAGSTAFF      PTSUNNY   83  41  22 SW6       30.38F

$$

REGIONAL REPORTS    NEVADA/IDAHO/WYOMING

CITY           SKY/WX    TMP DP  RH WIND       PRES   REMARKS
LAS VEGAS, NV  MOSUNNY  109  16   3 SW15G22   29.89F HX 100
ELY            SUNNY     92  22   8 S15G26    30.23F
ELKO           SUNNY     96  21   6 SW20      30.09F
POCATELLO, ID  SUNNY     91  45  20 NW9       30.09F
BURLEY         SUNNY     91  45  20 NE8       30.04F
EVANSTON, WY   MOSUNNY   90  39  16 SW14G22   30.33F
ROCK SPRINGS   MOSUNNY   91  25   9 SW12G23   30.29F

$$



USA.gov is the U.S. government's official web portal to all federal, state and local government web resources and services.